[[{"header":{"parameterUnit":"m.s-1","parameterCategory":1,"la1":30.2992,"la2":30.254,"lo1":-89.0895,"lo2":-89.0443,"dy":0.0025,"dx":0.0025,"nx":19,"ny":19,"refTime":"2026-05-23T03:00:00:Z","depth":0,"parameterNumber":2,"parameterNumberName":"U-component_of_WINDS"},"data":[0,0,0,-0.7411,-0.7411,-0.7391,-0.7391,-0.7373,-0.7373,0,0,0,0,0,0,0,0,0,0,0,-0.7421,-0.7421,-0.7411,-0.7411,-0.7392,-0.7391,-0.7373,-0.7373,0,0,0,0,0,0,0,0,0,0,0,-0.7421,-0.7421,-0.7421,-0.741,-0.7392,-0.7391,-0.7373,-0.7385,0,0,0,0,0,0,0,0,0,0,-0.7402,-0.7417,-0.7421,-0.7421,-0.741,-0.7392,-0.7391,-0.7385,-0.7384,-0.7384,0,-0.7387,0,-0.738,-0.7372,-0.7372,0,0,0,-0.7407,-0.7418,-0.7408,-0.7421,-0.741,-0.7392,-0.7399,-0.7385,-0.7383,-0.7383,-0.7386,-0.7385,-0.7379,-0.7372,-0.7372,-0.7387,-0.7387,0,0,-0.7408,-0.742,-0.7409,-0.7408,-0.7412,-0.74,-0.7399,-0.7384,-0.7388,-0.7386,-0.7385,-0.7379,-0.7372,-0.7372,-0.7386,-0.7387,0,0,0,-0.7413,-0.7421,-0.7412,-0.7409,-0.7405,-0.7399,-0.7398,-0.7389,-0.7385,-0.7385,-0.7379,-0.7372,-0.7372,-0.7386,-0.7386,-0.741,0,0,0,-0.7414,-0.7424,-0.7412,-0.742,-0.7405,-0.7397,-0.7403,-0.7386,-0.7384,-0.7379,-0.7372,-0.7372,-0.7386,-0.7386,-0.7408,-0.7418,0,0,0,-0.7421,-0.7425,-0.7424,-0.742,-0.7413,-0.7397,-0.7392,-0.7385,-0.738,-0.7372,-0.7372,-0.7386,-0.7386,-0.7407,-0.7417,-0.7425,0,0,0,-0.7431,-0.7445,-0.7424,-0.7437,-0.7413,-0.7412,-0.7392,-0.739,-0.7386,-0.7372,-0.7386,-0.7386,-0.7407,-0.7415,-0.7424,-0.7434,-0.7439,0,0,-0.7455,-0.7448,-0.7455,-0.7436,-0.7441,-0.7414,-0.7422,-0.7407,-0.7395,-0.739,-0.739,-0.7409,-0.7416,-0.7425,-0.7467,-0.7472,0,0,0,-0.7466,-0.7471,-0.747,-0.7466,-0.7455,-0.7446,-0.7428,-0.7422,-0.7417,-0.7395,-0.7414,-0.7418,-0.7423,-0.7427,-0.7431,-0.7433,-0.7389,-0.7389,-0.7389,-0.7516,-0.7501,-0.751,-0.7491,-0.7489,-0.747,-0.7465,-0.7454,-0.7439,-0.7443,-0.7441,-0.7469,-0.7475,-0.7477,-0.748,-0.7446,-0.7446,-0.7446,-0.7446,-0.7549,-0.7552,-0.7532,-0.7533,-0.7516,-0.7517,-0.7499,-0.7488,-0.7485,-0.747,-0.7473,-0.7456,-0.7483,-0.7484,-0.7448,-0.7448,-0.7447,-0.7447,-0.7447,-0.7579,-0.7578,-0.7571,-0.7564,-0.756,-0.7541,-0.754,-0.7524,-0.7509,-0.7512,-0.7508,-0.7507,-0.7504,-0.7511,-0.7511,-0.7512,-0.7512,-0.7512,-0.7512,-0.7613,-0.7604,-0.7605,-0.7594,-0.759,-0.7582,-0.7562,-0.7557,-0.7547,-0.7535,-0.7535,-0.7519,-0.7489,-0.7481,-0.7513,-0.7513,-0.7513,-0.7513,-0.7512,-0.765,-0.7639,-0.7641,-0.7636,-0.7622,-0.7618,-0.7599,-0.7589,-0.7582,-0.7581,-0.7564,-0.7545,-0.7537,-0.7533,-0.7527,-0.7568,-0.7568,-0.7568,-0.7568,-0.7675,-0.7669,-0.7667,-0.7661,-0.7653,-0.7635,-0.7636,-0.762,-0.7603,-0.7597,-0.7589,-0.7579,-0.7577,-0.7569,-0.7566,-0.7559,-0.7608,-0.7608,-0.7608,-0.7696,-0.7689,-0.7694,-0.7677,-0.7664,-0.7653,-0.7653,-0.7645,-0.7623,-0.7609,-0.7592,-0.759,-0.7574,-0.757,-0.7556,-0.755,-0.7538,0,0]},{"header":{"parameterUnit":"m.s-1","parameterCategory":1,"la1":30.2992,"la2":30.254,"lo1":-89.0895,"lo2":-89.0443,"dy":0.0025,"dx":0.0025,"nx":19,"ny":19,"refTime":"2026-05-23T03:00:00:Z","depth":0,"parameterNumber":3,"parameterNumberName":"V-component_of_WINDS"},"data":[0,0,0,-1.0337,-1.0334,-1.0153,-1.0153,-0.9924,-0.9922,0,0,0,0,0,0,0,0,0,0,0,-1.0397,-1.0396,-1.0338,-1.0333,-1.0154,-1.0153,-0.9925,-0.9922,0,0,0,0,0,0,0,0,0,0,0,-1.0398,-1.0396,-1.0395,-1.0333,-1.0154,-1.0153,-0.9925,-1.0059,0,0,0,0,0,0,0,0,0,0,-1.0233,-1.0296,-1.0397,-1.0395,-1.0332,-1.0154,-1.0152,-1.0065,-1.0051,-1.0008,0,-0.9978,0,-0.9947,-0.9908,-0.9907,0,0,0,-1.0327,-1.0308,-1.0255,-1.0394,-1.033,-1.0154,-1.0233,-1.0057,-1.004,-0.9989,-0.9974,-0.9965,-0.9943,-0.9906,-0.9905,-0.9694,-0.9694,0,0,-1.0337,-1.0367,-1.0266,-1.0244,-1.0278,-1.0239,-1.0227,-1.0047,-1.003,-0.9973,-0.996,-0.9939,-0.9905,-0.9903,-0.9695,-0.9694,0,0,0,-1.037,-1.0374,-1.0325,-1.0254,-1.0222,-1.0234,-1.0221,-1.0038,-1.002,-0.9957,-0.9937,-0.9904,-0.9901,-0.9696,-0.9695,-0.9689,0,0,0,-1.0375,-1.0393,-1.0329,-1.0346,-1.0225,-1.0129,-1.0216,-1.0033,-1.0011,-0.9938,-0.9903,-0.9899,-0.9696,-0.9695,-0.9691,-0.968,0,0,0,-1.0406,-1.0397,-1.0374,-1.0348,-1.0272,-1.0131,-1.0102,-1.0027,-0.9999,-0.9907,-0.9898,-0.9697,-0.9695,-0.9693,-0.9682,-0.9631,0,0,0,-1.0447,-1.037,-1.0374,-1.028,-1.0274,-1.0132,-1.0103,-0.9995,-0.9916,-0.9902,-0.9696,-0.9695,-0.9693,-0.9684,-0.9633,-0.9591,-0.9578,0,0,-1.0367,-1.0362,-1.0304,-1.0302,-1.0168,-1.0157,-1.002,-0.9916,-0.9878,-0.9756,-0.9751,-0.9691,-0.9683,-0.9631,-0.9499,-0.9488,0,0,0,-1.0288,-1.0247,-1.0205,-1.0134,-1.0057,-0.9987,-0.9903,-0.9864,-0.976,-0.9824,-0.9659,-0.9653,-0.9622,-0.96,-0.9591,-0.956,-0.9687,-0.9687,-0.9688,-1.0214,-1.0174,-1.0074,-1.0011,-0.9942,-0.9857,-0.9794,-0.9727,-0.9703,-0.9665,-0.9627,-0.9552,-0.9528,-0.9521,-0.9489,-0.9605,-0.9605,-0.9605,-0.9605,-1.009,-1.0022,-0.9997,-0.9891,-0.9846,-0.9754,-0.9668,-0.9655,-0.9559,-0.9578,-0.9548,-0.9567,-0.9511,-0.9481,-0.9604,-0.9604,-0.9604,-0.9604,-0.9604,-1.0033,-0.9993,-0.9952,-0.9843,-0.9764,-0.9701,-0.9612,-0.9574,-0.9537,-0.9508,-0.9461,-0.9461,-0.9453,-0.949,-0.949,-0.9489,-0.9489,-0.9489,-0.9489,-0.9989,-0.9942,-0.9874,-0.9787,-0.9735,-0.9662,-0.9576,-0.9522,-0.9452,-0.9431,-0.943,-0.9407,-0.9516,-0.9542,-0.9484,-0.9485,-0.9486,-0.9486,-0.9486,-0.9869,-0.9891,-0.9786,-0.9735,-0.9627,-0.9549,-0.9504,-0.9397,-0.9348,-0.9303,-0.9288,-0.9377,-0.9367,-0.9374,-0.9394,-0.9301,-0.9301,-0.9301,-0.9301,-0.9818,-0.9812,-0.9695,-0.9615,-0.9532,-0.9482,-0.9357,-0.9289,-0.9221,-0.9186,-0.9195,-0.9221,-0.923,-0.9214,-0.9224,-0.9242,-0.9113,-0.9112,-0.9112,-0.974,-0.9725,-0.9629,-0.9568,-0.9481,-0.9406,-0.9287,-0.9191,-0.9118,-0.9104,-0.9157,-0.9165,-0.9206,-0.9222,-0.9204,-0.9221,-0.9253,0,0]}]]